SCOUT A DEB, 2777

Orbit data source: Space-Track

SCOUT A DEB, 2777 is space debris in LEO originally from a launch on Fri, 14 Apr 1967 UTC launched from the Air Force Western Test Range (AFWTR). Debris objects in space refer to the collection of defunct objects orbiting the Earth. Examples of debris include non-operational satellites, rocket bodies, and fragments generated from explosions, collisions, or faulty payload assembly.

Loading next visibility...
Identifier
2777, 1967-034C
Orbit
LEO
Country
Flag of USUS
Related business
Manufacturer
Unknown
Mission
Spacecraft
Bus & Motor
Unknown
Mass
Unknown
Launch date (UTC)
1967-04-14 (59 years ago)
Launch vehicle
Unknown
Launch site
Air Force Western Test Range (AFWTR)
Object type
Payload
Rocket body
Debris
Shape & HBR
Unknown shape, 0.1 m
Radar Cross Section
Small (<0.1 m²)

Expand to show TLE details & history
Last TLE update: 6 hours ago

TLE from 6 hours ago
0 SCOUT A DEB
1 02777U 67034C   26070.92942878  .00000677  00000-0  37781-3 0  9996
2 02777  90.2829 242.2593 0133100  56.9105 304.4774 14.05654808995807
Epoch: 2026-03-11T22:18Z
TLE epoch observation values (Epoch: 2026-03-11T22:18:22.646Z)
Latitude
0.00003°
Longitude
98.07833°
Altitude
823.542 km
Speed
7.469 km/s
True Right ascension
16h 09m 02s
True Declination
0° 00' 00"
Sunlit
Object was in daylight at epoch
Visualization orbit readout
Latitude
Unknown
Longitude
Unknown
Altitude
Unknown
Speed
Unknown
Apparent Right ascension
Unknown
Apparent Declination
Unknown
Sunlit
N/A
Visualization observer readout
Local Sidereal Time
08:53:51
Azimuth
Unknown
Elevation
Unknown
Doppler factor
Unknown
Orbital elements
Apogee altitude
967.737 km
Perigee altitude
774.758 km
Semi-major axis
7,249.385 km
Eccentricity
0.01331
Inclination
90.2829°
RAAN
242.2593°
Arg. of periapsis
56.9105°
True anomaly
303.20825°
Mean anomaly
304.4774°
Eccentric anomaly
303.84401°
Mean motion
3.51634 °/min
Orbital period
102.38 mins
BSTAR
0.00037781
Loading maneuver chart data...
Computing Atmospheric mass density...
Loading historical data...
Loading historical data...
Loading historical data...
Loading historical data...
Loading historical data...
Loading historical data...
Loading historical data...

Documentation

Showing up to 5 results
|